QPF
0.08 0.09 0.11 0.11 0.10 0.12 0.13 0.11 0.09 0.07 0.08 0.07 0.07 0.06 0.06 0.05 0.06 0.05 0.03 0.03 0.03 0.04 0.03 0.03 0.03 0.03 0.03 0.03 0.02 0.03 0.02 0.02 0.02 0.01 0.01 0.01 0.01 0.01 0.01 0.01 0.00 0.00 0.01
0.09 0.10 0.09 0.10 0.14 0.14 0.12 0.12 0.11 0.11 0.10 0.09 0.09 0.09 0.09 0.08 0.08 0.07 0.06 0.05 0.05 0.06 0.06 0.06 0.05 0.05 0.05 0.04 0.04 0.05 0.04 0.05 0.04 0.03 0.02 0.02 0.03 0.04 0.04 0.03 0.01 0.01 0.00
0.08 0.10 0.11 0.12 0.16 0.17 0.16 0.16 0.15 0.13 0.11 0.11 0.11 0.11 0.12 0.12 0.11 0.10 0.09 0.07 0.07 0.07 0.07 0.07 0.06 0.05 0.05 0.05 0.05 0.06 0.05 0.05 0.06 0.04 0.03 0.04 0.04 0.06 0.08 0.06 0.03 0.03 0.01
0.09 0.12 0.13 0.14 0.18 0.19 0.18 0.19 0.17 0.16 0.14 0.13 0.12 0.11 0.10 0.08 0.08 0.08 0.08 0.08 0.09 0.09 0.10 0.09 0.07 0.07 0.06 0.07 0.07 0.08 0.07 0.07 0.08 0.07 0.07 0.06 0.08 0.08 0.10 0.10 0.08 0.08 0.05
0.11 0.11 0.13 0.15 0.18 0.19 0.18 0.18 0.18 0.16 0.14 0.14 0.13 0.12 0.12 0.11 0.09 0.10 0.11 0.10 0.12 0.10 0.10 0.10 0.09 0.07 0.05 0.04 0.04 0.05 0.06 0.06 0.07 0.08 0.08 0.08 0.09 0.09 0.09 0.08 0.08 0.06 0.04
0.10 0.09 0.11 0.13 0.14 0.16 0.16 0.16 0.16 0.14 0.12 0.13 0.13 0.13 0.13 0.10 0.10 0.08 0.06 0.07 0.08 0.09 0.08 0.08 0.07 0.06 0.05 0.04 0.03 0.02 0.03 0.03 0.05 0.06 0.06 0.06 0.06 0.07 0.07 0.06 0.06 0.05 0.03
0.10 0.10 0.10 0.11 0.13 0.15 0.15 0.15 0.14 0.13 0.12 0.13 0.15 0.14 0.11 0.08 0.05 0.02 0.02 0.03 0.04 0.04 0.05 0.05 0.05 0.05 0.05 0.05 0.05 0.04 0.03 0.02 0.01 0.02 0.02 0.03 0.04 0.03 0.03 0.03 0.03 0.03 0.03
0.10 0.11 0.13 0.13 0.13 0.14 0.14 0.14 0.13 0.14 0.15 0.14 0.12 0.09 0.06 0.03 0.02 0.01 0.00 0.01 0.01 0.02 0.02 0.02 0.03 0.03 0.03 0.03 0.04 0.04 0.03 0.03 0.02 0.01 0.01 0.01 0.01 0.01 0.02 0.02 0.02 0.02 0.01
0.12 0.13 0.13 0.14 0.13 0.11 0.10 0.08 0.07 0.07 0.07 0.05 0.02 0.02 0.02 0.01 0.01 0.01 0.01 0.01 0.01 0.01 0.01 0.01 0.01 0.01 0.01 0.01 0.01 0.01 0.02 0.02 0.02 0.02 0.01 0.01 0.01 0.00 0.00 0.00 0.00 0.01 0.01
0.11 0.14 0.13 0.11 0.10 0.08 0.06 0.04 0.03 0.02 0.02 0.02 0.01 0.01 0.01 0.01 0.01 0.00 0.00 0.01 0.02 0.02 0.01 0.01 0.00 0.00 0.00 0.00 0.00 0.00 0.00 0.00 0.00 0.00 0.00 0.00 0.00 0.00 0.00 0.00 0.01 0.01 0.01
0.10 0.12 0.12 0.10 0.08 0.06 0.04 0.02 0.01 0.01 0.01 0.01 0.00 0.01 0.00 0.00 0.00 0.00 0.00 0.00 0.00 0.00 0.00 0.00 0.00 0.00 0.00 0.00 0.00 0.00 0.00 0.00 0.00 0.00 0.00 0.00 0.00 0.00 0.01 0.01 0.02 0.02 0.02
0.09 0.09 0.08 0.06 0.05 0.04 0.03 0.02 0.01 0.01 0.01 0.01 0.01 0.01 0.01 0.00 0.00 0.00 0.00 0.00 0.00 0.00 0.00 0.00 0.00 0.00 0.00 0.00 0.00 0.00 0.00 0.00 0.00 0.00 0.00 0.00 0.00 0.00 0.00 0.00 0.01 0.01 0.01
0.08 0.07 0.06 0.05 0.05 0.04 0.03 0.02 0.01 0.01 0.01 0.01 0.01 0.01 0.00 0.00 0.00 0.00 0.00 0.00 0.00 0.00 0.00 0.00 0.00 0.00 0.00 0.00 0.00 0.00 0.00 0.00 0.00 0.00 0.00 0.00 0.00 0.00 0.00 0.00 0.00 0.01 0.01
0.05 0.05 0.04 0.03 0.02 0.02 0.01 0.01 0.01 0.01 0.00 0.00 0.00 0.00 0.00 0.00 0.00 0.00 0.00 0.00 0.00 0.00 0.00 0.00 0.00 0.00 0.00 0.00 0.00 0.00 0.00 0.00 0.00 0.00 0.00 0.00 0.00 0.00 0.00 0.00 0.00 0.00 0.00
0.05 0.04 0.03 0.02 0.01 0.01 0.00 0.00 0.00 0.00 0.00 0.00 0.00 0.00 0.00 0.00 0.00 0.00 0.00 0.00 0.00 0.00 0.00 0.00 0.00 0.00 0.00 0.00 0.00 0.00 0.00 0.00 0.00 0.01 0.00 0.00 0.00 0.00 0.00 0.00 0.01 0.01 0.01
0.04 0.03 0.02 0.01 0.01 0.00 0.00 0.00 0.00 0.00 0.00 0.00 0.00 0.00 0.00 0.00 0.00 0.00 0.00 0.00 0.00 0.00 0.00 0.00 0.00 0.00 0.00 0.00 0.00 0.00 0.00 0.00 0.01 0.01 0.01 0.01 0.01 0.01 0.01 0.01 0.01 0.01 0.01
0.04 0.03 0.02 0.01 0.01 0.01 0.01 0.00 0.00 0.00 0.00 0.00 0.00 0.00 0.00 0.00 0.00 0.00 0.00 0.00 0.00 0.00 0.00 0.00 0.00 0.00 0.00 0.00 0.00 0.00 0.00 0.01 0.01 0.01 0.01 0.01 0.01 0.01 0.01 0.01 0.01 0.01 0.01
0.03 0.02 0.01 0.01 0.01 0.00 0.00 0.00 0.00 0.00 0.00 0.00 0.00 0.00 0.00 0.00 0.00 0.00 0.00 0.00 0.00 0.00 0.00 0.00 0.00 0.00 0.00 0.00 0.00 0.01 0.01 0.01 0.01 0.01 0.01 0.01 0.01 0.01 0.01 0.01 0.01 0.01 0.01
0.01 0.01 0.01 0.00 0.00 0.00 0.00 0.00 0.00 0.00 0.00 0.00 0.00 0.00 0.00 0.00 0.00 0.00 0.00 0.00 0.00 0.00 0.00 0.00 0.00 0.00 0.00 0.00 0.01 0.01 0.01 0.01 0.01 0.01 0.01 0.01 0.01 0.01 0.01 0.01 0.01 0.01 0.01
0.00 0.00 0.00 0.00 0.00 0.00 0.00 0.00 0.01 0.01 0.00 0.00 0.00 0.00 0.00 0.00 0.00 0.00 0.00 0.00 0.00 0.00 0.00 0.00 0.00 0.00 0.00 0.00 0.01 0.01 0.00 0.00 0.00 0.01 0.01 0.01 0.01 0.01 0.01 0.01 0.01 0.01 0.02
0.00 0.00 0.00 0.00 0.00 0.00 0.00 0.00 0.00 0.00 0.00 0.00 0.00 0.00 0.00 0.00 0.00 0.00 0.00 0.00 0.00 0.00 0.00 0.00 0.00 0.00 0.00 0.00 0.00 0.00 0.00 0.00 0.01 0.01 0.01 0.01 0.01 0.01 0.01 0.01 0.01 0.01 0.02
0.00 0.00 0.00 0.00 0.00 0.00 0.00 0.00 0.00 0.00 0.00 0.00 0.00 0.00 0.00 0.00 0.00 0.00 0.00 0.00 0.00 0.00 0.00 0.00 0.00 0.00 0.00 0.00 0.00 0.00 0.00 0.01 0.01 0.01 0.01 0.01 0.01 0.01 0.01 0.01 0.01 0.01 0.02
0.00 0.00 0.00 0.00 0.00 0.00 0.00 0.00 0.00 0.00 0.00 0.00 0.00 0.00 0.00 0.00 0.00 0.00 0.00 0.00 0.00 0.00 0.00 0.00 0.00 0.00 0.00 0.00 0.00 0.00 0.00 0.00 0.00 0.01 0.01 0.01 0.01 0.01 0.01 0.01 0.01 0.01 0.02
0.00 0.00 0.00 0.00 0.00 0.00 0.00 0.00 0.00 0.00 0.00 0.00 0.00 0.00 0.00 0.00 0.00 0.00 0.00 0.00 0.00 0.00 0.00 0.00 0.00 0.00 0.00 0.00 0.00 0.00 0.00 0.00 0.00 0.00 0.00 0.00 0.00 0.00 0.01 0.01 0.01 0.01 0.02
0.00 0.00 0.00 0.00 0.00 0.00 0.00 0.00 0.00 0.00 0.00 0.00 0.00 0.00 0.00 0.00 0.00 0.00 0.00 0.00 0.00 0.00 0.00 0.00 0.00 0.00 0.00 0.00 0.00 0.00 0.00 0.00 0.00 0.00 0.00 0.00 0.00 0.00 0.01 0.01 0.01 0.01 0.02
0.00 0.00 0.00 0.00 0.00 0.00 0.00 0.00 0.00 0.00 0.00 0.00 0.00 0.00 0.00 0.00 0.00 0.00 0.00 0.00 0.00 0.00 0.00 0.00 0.00 0.00 0.00 0.00 0.00 0.00 0.00 0.00 0.00 0.00 0.00 0.00 0.00 0.01 0.02 0.01 0.01 0.01 0.01
MSLP
1010.66 1011.25 1011.88 1012.49 1013.03 1013.46 1013.80 1014.04 1014.22 1014.37 1014.52 1014.70 1014.91 1015.15 1015.40 1015.64 1015.86 1016.03 1016.16 1016.24 1016.30 1016.34 1016.39 1016.45 1016.52 1016.60 1016.69 1016.78 1016.85 1016.90 1016.93 1016.95 1016.94 1016.93 1016.91 1016.88 1016.85 1016.82 1016.80 1016.77 1016.76 1016.77 1016.80
1011.21 1011.78 1012.36 1012.91 1013.39 1013.79 1014.08 1014.30 1014.46 1014.60 1014.74 1014.89 1015.07 1015.28 1015.48 1015.68 1015.85 1015.97 1016.06 1016.12 1016.16 1016.19 1016.23 1016.29 1016.38 1016.48 1016.60 1016.71 1016.82 1016.91 1016.98 1017.04 1017.07 1017.10 1017.10 1017.10 1017.08 1017.04 1016.99 1016.92 1016.84 1016.77 1016.70
1011.76 1012.31 1012.86 1013.36 1013.79 1014.14 1014.41 1014.62 1014.78 1014.92 1015.07 1015.22 1015.40 1015.58 1015.76 1015.91 1016.02 1016.10 1016.14 1016.16 1016.17 1016.19 1016.24 1016.31 1016.42 1016.55 1016.70 1016.85 1016.99 1017.11 1017.22 1017.30 1017.36 1017.40 1017.42 1017.43 1017.41 1017.36 1017.29 1017.18 1017.05 1016.90 1016.74
1012.17 1012.74 1013.27 1013.73 1014.13 1014.45 1014.70 1014.91 1015.10 1015.28 1015.46 1015.65 1015.85 1016.04 1016.19 1016.31 1016.39 1016.42 1016.41 1016.39 1016.37 1016.38 1016.43 1016.52 1016.65 1016.82 1017.00 1017.18 1017.34 1017.48 1017.60 1017.68 1017.74 1017.78 1017.79 1017.79 1017.77 1017.72 1017.63 1017.50 1017.33 1017.12 1016.89
1012.39 1012.99 1013.51 1013.96 1014.33 1014.64 1014.90 1015.14 1015.37 1015.61 1015.86 1016.11 1016.36 1016.57 1016.74 1016.85 1016.90 1016.89 1016.84 1016.78 1016.74 1016.73 1016.78 1016.88 1017.04 1017.23 1017.44 1017.64 1017.81 1017.95 1018.05 1018.11 1018.13 1018.14 1018.13 1018.11 1018.07 1018.01 1017.92 1017.78 1017.60 1017.36 1017.09
1012.38 1013.02 1013.56 1014.01 1014.38 1014.69 1014.97 1015.24 1015.54 1015.85 1016.19 1016.53 1016.85 1017.12 1017.32 1017.45 1017.49 1017.46 1017.38 1017.29 1017.23 1017.20 1017.25 1017.36 1017.53 1017.73 1017.95 1018.15 1018.31 1018.42 1018.48 1018.49 1018.46 1018.42 1018.36 1018.31 1018.25 1018.18 1018.09 1017.96 1017.79 1017.56 1017.28
1012.21 1012.88 1013.45 1013.90 1014.28 1014.60 1014.91 1015.24 1015.60 1016.00 1016.43 1016.87 1017.27 1017.62 1017.87 1018.03 1018.08 1018.05 1017.96 1017.86 1017.77 1017.74 1017.77 1017.88 1018.04 1018.25 1018.45 1018.63 1018.76 1018.83 1018.83 1018.78 1018.68 1018.56 1018.45 1018.34 1018.25 1018.17 1018.09 1017.99 1017.85 1017.65 1017.39
1011.96 1012.67 1013.26 1013.73 1014.12 1014.47 1014.81 1015.19 1015.62 1016.09 1016.61 1017.13 1017.62 1018.04 1018.35 1018.55 1018.64 1018.62 1018.53 1018.42 1018.33 1018.28 1018.30 1018.39 1018.54 1018.72 1018.90 1019.05 1019.13 1019.14 1019.07 1018.94 1018.77 1018.58 1018.39 1018.23 1018.11 1018.02 1017.94 1017.87 1017.76 1017.61 1017.40
1011.79 1012.53 1013.13 1013.63 1014.04 1014.41 1014.78 1015.20 1015.67 1016.21 1016.79 1017.38 1017.93 1018.41 1018.79 1019.03 1019.15 1019.16 1019.08 1018.98 1018.87 1018.81 1018.81 1018.88 1019.00 1019.14 1019.28 1019.38 1019.41 1019.36 1019.23 1019.03 1018.78 1018.51 1018.27 1018.05 1017.89 1017.77 1017.69 1017.63 1017.56 1017.46 1017.30
1011.82 1012.58 1013.20 1013.71 1014.14 1014.54 1014.94 1015.38 1015.88 1016.45 1017.06 1017.69 1018.28 1018.80 1019.22 1019.50 1019.65 1019.68 1019.63 1019.52 1019.42 1019.34 1019.31 1019.34 1019.42 1019.52 1019.61 1019.66 1019.64 1019.53 1019.35 1019.09 1018.78 1018.46 1018.15 1017.88 1017.67 1017.52 1017.43 1017.36 1017.30 1017.23 1017.11
1012.15 1012.91 1013.55 1014.08 1014.54 1014.95 1015.37 1015.82 1016.33 1016.90 1017.51 1018.14 1018.74 1019.27 1019.70 1020.01 1020.18 1020.23 1020.19 1020.09 1019.97 1019.88 1019.81 1019.80 1019.83 1019.87 1019.91 1019.91 1019.85 1019.71 1019.49 1019.20 1018.86 1018.50 1018.15 1017.83 1017.57 1017.38 1017.24 1017.14 1017.07 1016.99 1016.88
1012.80 1013.56 1014.21 1014.76 1015.24 1015.67 1016.09 1016.54 1017.04 1017.58 1018.17 1018.77 1019.35 1019.86 1020.28 1020.58 1020.76 1020.82 1020.78 1020.68 1020.55 1020.42 1020.32 1020.26 1020.23 1020.22 1020.21 1020.18 1020.09 1019.93 1019.70 1019.41 1019.06 1018.69 1018.31 1017.96 1017.65 1017.40 1017.20 1017.05 1016.92 1016.81 1016.67
1013.74 1014.48 1015.13 1015.69 1016.18 1016.63 1017.06 1017.50 1017.97 1018.48 1019.01 1019.56 1020.08 1020.55 1020.94 1021.22 1021.39 1021.44 1021.40 1021.29 1021.13 1020.97 1020.82 1020.71 1020.63 1020.57 1020.52 1020.46 1020.36 1020.21 1020.00 1019.73 1019.41 1019.05 1018.67 1018.30 1017.95 1017.64 1017.36 1017.13 1016.93 1016.74 1016.55
1014.84 1015.55 1016.19 1016.76 1017.26 1017.72 1018.15 1018.57 1019.01 1019.47 1019.94 1020.42 1020.88 1021.30 1021.63 1021.88 1022.02 1022.05 1021.99 1021.86 1021.68 1021.48 1021.29 1021.12 1020.99 1020.89 1020.81 1020.74 1020.66 1020.54 1020.37 1020.16 1019.88 1019.56 1019.20 1018.83 1018.45 1018.08 1017.73 1017.40 1017.10 1016.82 1016.54
1015.97 1016.62 1017.24 1017.80 1018.31 1018.77 1019.19 1019.60 1020.00 1020.42 1020.83 1021.24 1021.63 1021.98 1022.26 1022.46 1022.57 1022.58 1022.49 1022.34 1022.13 1021.89 1021.66 1021.46 1021.29 1021.16 1021.07 1021.01 1020.95 1020.88 1020.78 1020.64 1020.43 1020.17 1019.85 1019.49 1019.09 1018.67 1018.25 1017.83 1017.43 1017.04 1016.67
1016.96 1017.55 1018.12 1018.66 1019.16 1019.61 1020.03 1020.43 1020.81 1021.18 1021.54 1021.89 1022.22 1022.51 1022.74 1022.90 1022.97 1022.95 1022.84 1022.66 1022.43 1022.18 1021.92 1021.69 1021.50 1021.36 1021.28 1021.24 1021.23 1021.22 1021.19 1021.12 1021.00 1020.81 1020.54 1020.20 1019.80 1019.35 1018.87 1018.37 1017.88 1017.39 1016.92
1017.72 1018.22 1018.73 1019.23 1019.71 1020.16 1020.58 1020.97 1021.33 1021.67 1022.00 1022.31 1022.59 1022.83 1023.01 1023.13 1023.18 1023.14 1023.02 1022.83 1022.59 1022.32 1022.06 1021.82 1021.63 1021.50 1021.44 1021.43 1021.46 1021.52 1021.57 1021.58 1021.53 1021.40 1021.18 1020.87 1020.47 1020.00 1019.48 1018.92 1018.35 1017.78 1017.23
1018.20 1018.61 1019.05 1019.51 1019.96 1020.40 1020.81 1021.20 1021.56 1021.89 1022.19 1022.47 1022.72 1022.93 1023.08 1023.18 1023.21 1023.16 1023.03 1022.85 1022.61 1022.36 1022.11 1021.89 1021.71 1021.61 1021.57 1021.61 1021.69 1021.79 1021.90 1021.97 1021.98 1021.90 1021.71 1021.42 1021.03 1020.55 1020.00 1019.40 1018.77 1018.14 1017.52
1018.43 1018.75 1019.13 1019.54 1019.97 1020.39 1020.81 1021.20 1021.56 1021.89 1022.19 1022.46 1022.68 1022.87 1023.02 1023.10 1023.12 1023.07 1022.96 1022.79 1022.58 1022.36 1022.14 1021.95 1021.81 1021.74 1021.74 1021.80 1021.92 1022.06 1022.19 1022.29 1022.32 1022.26 1022.09 1021.80 1021.40 1020.91 1020.33 1019.71 1019.05 1018.39 1017.73
1018.50 1018.75 1019.07 1019.44 1019.85 1020.27 1020.68 1021.08 1021.45 1021.79 1022.09 1022.36 1022.58 1022.77 1022.90 1022.98 1023.00 1022.97 1022.88 1022.74 1022.57 1022.39 1022.22 1022.07 1021.98 1021.94 1021.97 1022.05 1022.18 1022.33 1022.46 1022.55 1022.56 1022.48 1022.29 1021.97 1021.55 1021.03 1020.44 1019.79 1019.12 1018.44 1017.76
1018.54 1018.74 1019.01 1019.36 1019.76 1020.17 1020.59 1021.00 1021.38 1021.73 1022.04 1022.30 1022.53 1022.70 1022.84 1022.92 1022.95 1022.94 1022.87 1022.77 1022.65 1022.52 1022.39 1022.29 1022.24 1022.23 1022.28 1022.37 1022.49 1022.60 1022.70 1022.74 1022.69 1022.55 1022.30 1021.94 1021.46 1020.91 1020.29 1019.63 1018.94 1018.26 1017.59
1018.66 1018.84 1019.10 1019.43 1019.82 1020.24 1020.66 1021.07 1021.45 1021.80 1022.11 1022.37 1022.59 1022.76 1022.89 1022.97 1023.02 1023.02 1022.98 1022.92 1022.83 1022.75 1022.67 1022.61 1022.59 1022.60 1022.65 1022.72 1022.80 1022.86 1022.89 1022.84 1022.71 1022.48 1022.15 1021.70 1021.17 1020.56 1019.91 1019.23 1018.54 1017.87 1017.21
1018.96 1019.14 1019.40 1019.73 1020.11 1020.52 1020.93 1021.33 1021.71 1022.04 1022.33 1022.58 1022.79 1022.95 1023.07 1023.15 1023.19 1023.21 1023.19 1023.15 1023.10 1023.05 1023.00 1022.98 1022.97 1022.98 1023.02 1023.05 1023.07 1023.06 1023.00 1022.85 1022.62 1022.29 1021.85 1021.32 1020.71 1020.05 1019.35 1018.65 1017.96 1017.30 1016.66
1019.45 1019.65 1019.92 1020.25 1020.62 1021.00 1021.39 1021.76 1022.11 1022.41 1022.67 1022.89 1023.07 1023.21 1023.31 1023.38 1023.42 1023.43 1023.42 1023.40 1023.37 1023.34 1023.31 1023.29 1023.28 1023.29 1023.29 1023.28 1023.24 1023.15 1023.00 1022.76 1022.42 1021.99 1021.46 1020.85 1020.17 1019.46 1018.73 1018.01 1017.31 1016.65 1016.04
1020.09 1020.31 1020.59 1020.90 1021.24 1021.59 1021.93 1022.25 1022.55 1022.80 1023.02 1023.20 1023.35 1023.45 1023.53 1023.58 1023.61 1023.62 1023.60 1023.58 1023.55 1023.52 1023.49 1023.46 1023.44 1023.42 1023.39 1023.34 1023.24 1023.09 1022.86 1022.55 1022.14 1021.64 1021.04 1020.37 1019.65 1018.89 1018.14 1017.40 1016.69 1016.04 1015.43
1020.79 1021.02 1021.28 1021.57 1021.86 1022.15 1022.42 1022.68 1022.91 1023.10 1023.27 1023.40 1023.50 1023.58 1023.63 1023.66 1023.67 1023.67 1023.64 1023.61 1023.57 1023.52 1023.48 1023.43 1023.39 1023.34 1023.28 1023.19 1023.05 1022.86 1022.60 1022.25 1021.81 1021.27 1020.65 1019.96 1019.21 1018.44 1017.67 1016.91 1016.20 1015.53 1014.93
Thickness
5741 5738 5736 5734 5733 5731 5730 5730 5731 5732 5731 5729 5728 5727 5726 5725 5724 5723 5722 5722 5720 5719 5719 5718 5717 5717 5716 5716 5716 5715 5714 5711 5705 5708 5713 5715 5715 5712 5711 5709 5708 5706 5705
5741 5738 5736 5734 5732 5730 5728 5728 5728 5727 5727 5726 5725 5723 5723 5722 5720 5719 5716 5717 5715 5713 5712 5712 5710 5711 5709 5707 5707 5706 5705 5705 5701 5698 5701 5703 5703 5703 5702 5701 5700 5700 5700
5742 5738 5734 5732 5730 5728 5727 5725 5724 5722 5721 5720 5719 5718 5717 5716 5715 5713 5712 5711 5710 5708 5707 5705 5703 5702 5699 5699 5698 5697 5696 5697 5695 5691 5691 5692 5692 5692 5691 5691 5691 5690 5691
5742 5737 5732 5730 5728 5726 5724 5722 5719 5718 5716 5714 5713 5712 5710 5709 5708 5706 5706 5704 5703 5701 5698 5696 5694 5692 5689 5689 5688 5686 5686 5685 5684 5682 5681 5681 5681 5681 5679 5677 5676 5678 5678
5742 5736 5732 5729 5727 5724 5721 5718 5715 5713 5711 5708 5706 5704 5702 5700 5698 5698 5697 5696 5694 5691 5688 5686 5683 5681 5679 5677 5676 5674 5673 5672 5671 5669 5668 5668 5667 5665 5663 5664 5662 5663 5665
5741 5736 5732 5728 5724 5721 5717 5713 5710 5707 5703 5700 5697 5693 5691 5688 5686 5687 5687 5687 5684 5681 5678 5676 5673 5670 5668 5666 5664 5662 5660 5658 5656 5654 5653 5651 5651 5650 5649 5648 5647 5646 5647
5737 5733 5729 5724 5719 5716 5712 5707 5703 5699 5695 5690 5686 5682 5678 5674 5675 5676 5676 5676 5674 5671 5668 5665 5663 5658 5655 5653 5652 5650 5648 5645 5643 5641 5639 5637 5636 5635 5633 5631 5630 5628 5629
5731 5727 5723 5718 5713 5708 5703 5699 5695 5691 5686 5681 5676 5672 5667 5663 5664 5665 5665 5665 5663 5659 5656 5652 5648 5643 5639 5637 5638 5636 5635 5633 5631 5628 5626 5624 5622 5620 5617 5615 5615 5615 5618
5723 5719 5715 5710 5704 5698 5693 5689 5685 5681 5676 5672 5667 5662 5657 5652 5652 5653 5653 5653 5650 5647 5643 5638 5634 5629 5624 5623 5622 5621 5619 5618 5617 5614 5612 5610 5608 5606 5603 5600 5599 5599 5600
5712 5709 5704 5699 5694 5688 5683 5679 5674 5671 5666 5662 5656 5652 5646 5641 5640 5639 5640 5639 5636 5633 5628 5623 5618 5614 5610 5607 5606 5604 5603 5600 5598 5598 5597 5597 5595 5593 5590 5585 5582 5580 5580
5701 5696 5691 5686 5682 5677 5673 5668 5664 5660 5655 5651 5646 5640 5635 5630 5627 5626 5624 5622 5620 5618 5615 5611 5605 5601 5597 5594 5591 5589 5586 5583 5582 5582 5582 5581 5579 5576 5572 5569 5565 5561 5559
5689 5683 5678 5673 5670 5665 5661 5656 5652 5648 5644 5639 5635 5629 5624 5619 5615 5611 5609 5607 5604 5602 5599 5595 5591 5587 5584 5580 5577 5574 5570 5567 5566 5566 5563 5560 5557 5553 5550 5546 5544 5542 5540
5673 5668 5663 5659 5655 5651 5648 5644 5641 5637 5635 5631 5626 5621 5614 5608 5602 5598 5596 5593 5590 5586 5583 5579 5576 5574 5570 5567 5562 5557 5553 5550 5547 5543 5539 5536 5532 5529 5526 5525 5524 5523 5522
5659 5654 5650 5646 5641 5637 5634 5630 5625 5623 5621 5618 5613 5608 5601 5593 5587 5583 5581 5579 5575 5572 5567 5565 5563 5561 5555 5549 5545 5540 5534 5529 5524 5520 5516 5512 5509 5507 5505 5503 5502 5502 5502
5647 5642 5637 5632 5626 5620 5614 5608 5605 5600 5601 5600 5595 5590 5584 5576 5567 5563 5561 5560 5555 5551 5547 5549 5549 5545 5538 5532 5526 5521 5514 5508 5503 5498 5494 5491 5488 5486 5484 5483 5482 5482 5483
5634 5630 5627 5621 5615 5610 5602 5592 5585 5584 5582 5579 5576 5572 5564 5559 5554 5550 5547 5543 5539 5534 5530 5531 5528 5523 5517 5510 5505 5499 5493 5487 5482 5478 5475 5472 5470 5468 5467 5466 5465 5466 5466
5622 5620 5618 5614 5608 5603 5597 5589 5579 5570 5566 5564 5561 5556 5551 5545 5541 5536 5531 5527 5524 5519 5515 5513 5508 5502 5496 5489 5484 5478 5473 5468 5464 5461 5458 5456 5454 5452 5452 5451 5451 5452 5452
5612 5609 5607 5604 5601 5596 5591 5585 5578 5569 5561 5552 5545 5541 5536 5531 5526 5521 5516 5511 5512 5507 5502 5496 5489 5483 5476 5470 5465 5459 5455 5452 5449 5446 5444 5442 5440 5439 5439 5439 5439 5439 5441
5602 5599 5597 5595 5592 5587 5582 5577 5570 5563 5555 5546 5537 5528 5523 5518 5513 5507 5500 5497 5495 5490 5483 5476 5470 5464 5459 5454 5448 5444 5441 5438 5435 5433 5431 5430 5428 5427 5428 5428 5429 5430 5431
5589 5586 5585 5583 5580 5575 5570 5564 5557 5551 5544 5536 5528 5519 5513 5509 5503 5497 5489 5484 5477 5471 5465 5459 5454 5448 5444 5439 5435 5431 5428 5425 5423 5421 5419 5417 5417 5417 5418 5420 5421 5423 5425
5580 5576 5572 5570 5566 5561 5556 5550 5544 5538 5531 5523 5513 5503 5495 5494 5489 5481 5475 5468 5461 5455 5450 5444 5440 5436 5431 5426 5422 5419 5416 5414 5411 5408 5406 5406 5406 5408 5409 5412 5414 5417 5419
5570 5566 5562 5557 5552 5547 5542 5536 5530 5523 5517 5509 5500 5492 5482 5478 5473 5466 5460 5454 5448 5442 5437 5432 5428 5424 5420 5415 5412 5409 5406 5402 5399 5396 5396 5397 5399 5401 5403 5405 5409 5412 5414
5560 5556 5550 5544 5539 5531 5529 5524 5517 5511 5503 5496 5488 5481 5474 5466 5460 5453 5447 5442 5436 5432 5427 5422 5419 5415 5410 5407 5403 5400 5395 5390 5388 5387 5389 5391 5392 5394 5397 5400 5404 5408 5411
5550 5545 5540 5534 5528 5523 5518 5511 5505 5498 5490 5483 5476 5469 5462 5455 5450 5443 5438 5432 5427 5423 5418 5415 5411 5407 5403 5400 5395 5391 5386 5383 5381 5382 5382 5384 5387 5390 5393 5397 5401 5404 5408
5539 5533 5528 5522 5517 5511 5505 5498 5491 5485 5478 5472 5465 5459 5453 5447 5441 5435 5430 5424 5419 5416 5411 5408 5404 5401 5397 5393 5388 5384 5381 5380 5378 5378 5378 5380 5384 5387 5390 5394 5398 5402 5405
5528 5522 5517 5511 5505 5499 5493 5487 5481 5475 5469 5463 5456 5450 5444 5439 5434 5428 5422 5418 5413 5410 5406 5402 5399 5396 5391 5388 5384 5380 5378 5377 5376 5376 5376 5378 5382 5386 5390 5393 5396 5399 5403